Airfield :
LOGIN :

Register | Disclaimer

   EN    FR    IT 

 










Legend :    VFR   Marginal VFR   IFR   Intensive IFR   Very Intensive IFR
Visi :
Ceiling :
>= 8 km
>= 3000ft
5 to 8 km
1000 to 3000 ft
1500m to 5 km
500 to 1000 ft
800 to 1500m
200 to 500 ft
< 800m
< 200 ft
Symbols :   Thunderstorms  Fog  Heavy snow  Heavy precipitations  Wind > 20 kt
SIGMETs :     Misc.  Thunderstorms  Icing  Turbulence  Mountain Waves  Volcanic Ashes






- Airport Elevation : 177 ft
- IATA code : BRI


LIBD - Palese Macchie Bari

CURRENT METAR :
  • 141050Z 33009KT 290V010 9999 SCT040 11/02 Q1021

EXPIRED METARs :
  • 141020Z 33010KT 300V360 9999 SCT040 12/02 Q1021
  • 140950Z 30011KT 270V330 9999 SCT040 11/02 Q1021
  • 140920Z 31010KT 280V350 9999 SCT035 12/03 Q1021
  • 140850Z 30011KT 270V340 9999 SCT035 11/03 Q1021
  • 140820Z 30012KT CAVOK 11/03 Q1021

TAF TAF LIBD
Valid from the 14 at 06:00 until the 15 at 06:00 UTC


140500Z 1406/1506 34015KT 9999 SCT030
TEMPO 1409/1415 34015G25KT



MET'MAP, your aeronautical weather chart ! - Copyright ORBIFLY December 2007 - Disclaimer

ORBIFLY MET'MAP TEAM :

Programming & Development : Alexandra Zaïnal
Concept & original design : Baudouin d'Aumeries
Assistance for programming : Marc-Olivier Méhu
Technical & hardware support : Manuel Goepfert

Contact : metmap@orbifly.com




SOURCES & CREDITS :

   NOAA